TimeEST,TemperatureF,Dew PointF,Humidity,Sea Level PressureIn,VisibilityMPH,Wind Direction,Wind SpeedMPH,Gust SpeedMPH,PrecipitationIn,Events,Conditions,WindDirDegrees,DateUTC
12:36 AM,24.8,14.0,64,30.08,10.0,WNW,19.6,32.2,N/A,,Scattered Clouds,290,2012-01-30 05:36:00
12:56 AM,24.8,12.2,59,30.08,10.0,WNW,24.2,36.8,N/A,,Clear,290,2012-01-30 05:56:00
1:16 AM,23.0,12.2,63,30.08,10.0,West,23.0,34.5,N/A,,Clear,280,2012-01-30 06:16:00
1:37 AM,23.0,12.2,63,30.09,10.0,West,20.7,35.7,N/A,,Clear,280,2012-01-30 06:37:00
1:56 AM,23.0,12.2,63,30.09,10.0,West,18.4,31.1,N/A,,Clear,280,2012-01-30 06:56:00
2:17 AM,21.2,10.4,63,30.10,10.0,WNW,21.9,31.1,N/A,,Clear,290,2012-01-30 07:17:00
2:36 AM,21.2,10.4,63,30.10,10.0,WNW,23.0,34.5,N/A,,Clear,290,2012-01-30 07:36:00
2:56 AM,21.2,10.4,63,30.10,10.0,WNW,20.7,29.9,N/A,,Clear,290,2012-01-30 07:56:00
3:16 AM,21.2,8.6,58,30.10,10.0,WNW,23.0,36.8,N/A,,Clear,290,2012-01-30 08:16:00
3:36 AM,21.2,8.6,58,30.10,10.0,WNW,21.9,29.9,N/A,,Clear,290,2012-01-30 08:36:00
3:56 AM,21.2,8.6,58,30.11,10.0,WNW,24.2,29.9,N/A,,Clear,290,2012-01-30 08:56:00
4:16 AM,21.2,6.8,54,30.10,10.0,West,21.9,36.8,N/A,,Clear,280,2012-01-30 09:16:00
4:36 AM,21.2,6.8,54,30.10,10.0,WNW,21.9,29.9,N/A,,Clear,290,2012-01-30 09:36:00
4:57 AM,21.2,6.8,54,30.11,10.0,West,21.9,34.5,N/A,,Clear,280,2012-01-30 09:57:00
5:16 AM,21.2,5.0,50,30.12,10.0,WNW,17.3,31.1,N/A,,Clear,290,2012-01-30 10:16:00
5:36 AM,21.2,3.2,46,30.13,10.0,West,17.3,28.8,N/A,,Clear,280,2012-01-30 10:36:00
5:56 AM,21.2,6.8,54,30.14,10.0,West,16.1,27.6,N/A,,Clear,280,2012-01-30 10:56:00
6:36 AM,19.4,5.0,54,30.16,10.0,West,18.4,25.3,N/A,,Clear,280,2012-01-30 11:36:00
6:56 AM,19.4,5.0,54,30.18,10.0,West,16.1,23.0,N/A,,Clear,280,2012-01-30 11:56:00
7:18 AM,19.4,5.0,54,30.19,10.0,West,15.0,21.9,N/A,,Clear,280,2012-01-30 12:18:00
7:36 AM,19.4,5.0,54,30.20,10.0,West,15.0,23.0,N/A,,Clear,280,2012-01-30 12:36:00
7:56 AM,21.2,6.8,54,30.21,10.0,West,12.7,-,N/A,,Clear,280,2012-01-30 12:56:00
8:16 AM,21.2,6.8,54,30.23,10.0,West,13.8,-,N/A,,Clear,270,2012-01-30 13:16:00
8:36 AM,21.2,6.8,54,30.23,10.0,West,12.7,-,N/A,,Clear,280,2012-01-30 13:36:00
8:56 AM,21.2,8.6,58,30.23,10.0,West,10.4,16.1,N/A,,Unknown,270,2012-01-30 13:56:00
9:16 AM,23.0,8.6,54,30.23,10.0,West,11.5,16.1,N/A,,Clear,280,2012-01-30 14:16:00
9:37 AM,24.8,10.4,54,30.25,10.0,West,10.4,-,N/A,,Clear,260,2012-01-30 14:37:00
9:56 AM,24.8,10.4,54,30.26,10.0,West,8.1,-,N/A,,Clear,260,2012-01-30 14:56:00
10:16 AM,26.6,10.4,51,30.27,10.0,WSW,8.1,-,N/A,,Clear,250,2012-01-30 15:16:00
10:36 AM,26.6,10.4,51,30.28,10.0,WSW,6.9,-,N/A,,Clear,250,2012-01-30 15:36:00
10:56 AM,28.4,10.4,47,30.28,10.0,WSW,8.1,-,N/A,,Clear,250,2012-01-30 15:56:00
11:18 AM,30.2,12.2,47,30.29,10.0,West,10.4,-,N/A,,Clear,260,2012-01-30 16:18:00
11:36 AM,30.2,12.2,47,30.28,10.0,WSW,11.5,16.1,N/A,,Clear,250,2012-01-30 16:36:00
12:16 PM,33.8,12.2,41,30.27,10.0,WSW,9.2,-,N/A,,Clear,250,2012-01-30 17:16:00
12:36 PM,33.8,12.2,41,30.27,10.0,West,11.5,16.1,N/A,,Clear,270,2012-01-30 17:36:00
1:18 PM,35.6,15.8,44,30.26,10.0,West,13.8,-,N/A,,Clear,260,2012-01-30 18:18:00
1:36 PM,37.4,15.8,41,30.25,10.0,West,15.0,21.9,N/A,,Clear,260,2012-01-30 18:36:00
1:56 PM,37.4,17.6,45,30.25,10.0,West,15.0,21.9,N/A,,Clear,260,2012-01-30 18:56:00
2:16 PM,39.2,17.6,42,30.24,10.0,West,12.7,21.9,N/A,,Clear,260,2012-01-30 19:16:00
2:37 PM,39.2,17.6,42,30.24,10.0,West,16.1,24.2,N/A,,Clear,270,2012-01-30 19:37:00
2:55 PM,39.2,17.6,42,30.24,10.0,West,15.0,-,N/A,,Clear,260,2012-01-30 19:55:00
3:35 PM,39.2,19.4,45,30.24,10.0,WSW,16.1,-,N/A,,Clear,250,2012-01-30 20:35:00
3:55 PM,39.2,19.4,45,30.24,10.0,West,16.1,-,N/A,,Clear,260,2012-01-30 20:55:00
4:15 PM,39.2,19.4,45,30.25,10.0,West,12.7,17.3,N/A,,Clear,260,2012-01-30 21:15:00
4:37 PM,39.2,19.4,45,30.25,10.0,WSW,16.1,24.2,N/A,,Clear,250,2012-01-30 21:37:00
4:55 PM,39.2,19.4,45,30.25,10.0,WSW,15.0,19.6,N/A,,Clear,250,2012-01-30 21:55:00
5:15 PM,39.2,19.4,45,30.26,10.0,WSW,10.4,-,N/A,,Clear,250,2012-01-30 22:15:00
5:35 PM,37.4,19.4,48,30.26,10.0,WSW,9.2,-,N/A,,Clear,240,2012-01-30 22:35:00
5:55 PM,37.4,19.4,48,30.26,10.0,SW,8.1,-,N/A,,Clear,220,2012-01-30 22:55:00
6:15 PM,39.2,19.4,45,30.26,10.0,SW,9.2,-,N/A,,Clear,220,2012-01-30 23:15:00
6:35 PM,41.0,19.4,42,30.26,10.0,SSW,9.2,17.3,N/A,,Clear,210,2012-01-30 23:35:00
6:55 PM,41.0,19.4,42,30.25,10.0,SW,15.0,18.4,N/A,,Clear,220,2012-01-30 23:55:00
7:17 PM,39.2,19.4,45,30.26,10.0,SW,13.8,19.6,N/A,,Clear,230,2012-01-31 00:17:00
7:35 PM,39.2,19.4,45,30.27,10.0,WSW,15.0,-,N/A,,Clear,250,2012-01-31 00:35:00
7:55 PM,39.2,19.4,45,30.27,10.0,WSW,15.0,-,N/A,,Clear,250,2012-01-31 00:55:00
8:15 PM,39.2,19.4,45,30.28,10.0,WSW,15.0,-,N/A,,Clear,250,2012-01-31 01:15:00
8:37 PM,39.2,19.4,45,30.27,10.0,WSW,15.0,-,N/A,,Clear,240,2012-01-31 01:37:00
8:55 PM,39.2,19.4,45,30.27,10.0,WSW,15.0,21.9,N/A,,Clear,240,2012-01-31 01:55:00
9:17 PM,39.2,19.4,45,30.27,10.0,WSW,18.4,23.0,N/A,,Clear,250,2012-01-31 02:17:00
9:35 PM,39.2,19.4,45,30.26,10.0,WSW,21.9,27.6,N/A,,Clear,250,2012-01-31 02:35:00
9:56 PM,39.2,19.4,45,30.26,10.0,WSW,21.9,25.3,N/A,,Clear,250,2012-01-31 02:56:00
10:16 PM,39.2,19.4,45,30.26,10.0,WSW,19.6,26.5,N/A,,Clear,250,2012-01-31 03:16:00
10:35 PM,39.2,19.4,45,30.26,10.0,WSW,20.7,26.5,N/A,,Clear,250,2012-01-31 03:35:00
10:55 PM,39.2,19.4,45,30.27,10.0,WSW,18.4,26.5,N/A,,Clear,250,2012-01-31 03:55:00
11:15 PM,39.2,19.4,45,30.27,10.0,WSW,19.6,24.2,N/A,,Clear,250,2012-01-31 04:15:00
11:35 PM,39.2,19.4,45,30.27,10.0,West,19.6,-,N/A,,Clear,260,2012-01-31 04:35:00
11:55 PM,39.2,19.4,45,30.26,10.0,West,21.9,25.3,N/A,,Clear,260,2012-01-31 04:55:00